Location: Las Navas
(40.6024°N, 4.3345°W)
Time: 09:18:55
(UTC+00:00)

Cosmos 1943 - Pass Details

Date: 03 April 2020
Orbit: 832 x 851 km, 71.0° (Epoch: 29 May)

Event Time Altitude Azimuth Distance (km) Brightness Sun altitude
Rises 20:36:01 0° 213° (SSW) 3,375 6.4 -20.9°
Reaches altitude 10° 20:38:29 10° 218° (SW) 2,448 5.7 -21.3°
Maximum altitude 20:44:01 58° 297° (WNW) 982 3.8 -22.2°
Drops below altitude 10° 20:49:37 10° 16° (NNE) 2,475 5.8 -23.1°
Sets 20:52:08 0° 20° (NNE) 3,417 6.5 -23.5°
